Hourly Data Report for February 17, 2017

All times are specified in Local Standard Time (LST). Add 1 hour to adjust for Daylight Saving Time where and when it is observed.

TORONTO INTL A
ONTARIO

43°40'36.000" N
79°37'50.000" W
173.40 m
6158731
71624
YYZ

Download Data

Hourly Data (February 2017)
Hourly Data Report for February 17, 2017
TIME Temp Definition
°C
Dew Point Definition
°C
Rel Hum Definition
%
Wind Dir Definition
10's deg

Wind Spd Definition
km/h
Visibility Definition
km
Stn Press Definition
kPa
Hmdx Definition


Wind Chill Definition


Weather Definition


00:00 -7.1 -11.5 71 29 6 24.1 99.31   -10 LegendNANA
01:00 -6.7 -11.1 71 33 9 24.1 99.29   -11 Mostly Cloudy
02:00 -6.5 -10.8 72 28 5 24.1 99.29   -9 LegendNANA
03:00 -6.6 -10.3 75 29 5 24.1 99.29   -9 LegendNANA
04:00 -6.2 -10.6 71 31 9 24.1 99.27   -10 Mostly Cloudy
05:00 -6.3 -10.4 73 32 5 24.1 99.21   -9 LegendNANA
06:00 -6.3 -10.7 71 36 1 24.1 99.19   -7 LegendNANA
07:00 -6.1 -10.7 70 36 1 24.1 99.20   -7 Mostly Cloudy
08:00 -6.0 -10.6 70 16 6 24.1 99.22   -9 LegendNANA
09:00 -5.1 -10.3 67 14 7 24.1 99.25   -8 LegendNANA
10:00 -3.9 -9.8 64 15 7 24.1 99.24   -7 Mainly Clear
11:00 -2.6 -9.6 59 17 5 24.1 99.24   -5 LegendNANA
12:00 -1.9 -9.8 55 12 9 24.1 99.15   -5 LegendNANA
13:00 -1.1 -8.1 59 19 7 24.1 99.08   -4 Mostly Cloudy
14:00 -1.1 -7.7 61 15 12 24.1 98.97   -5 LegendNANA
15:00 -0.3 -6.5 63 16 9 24.1 98.96   -3 LegendNANA
16:00 -0.3 -6.3 64 15 6 24.1 98.98   -2 Mostly Cloudy
17:00 -1.1 -5.9 70 13 10 24.1 98.96   -5 LegendNANA
18:00 -1.2 -5.8 71 12 15 24.1 98.88   -6 LegendNANA
19:00 -1.2 -6.0 70 12 10 24.1 98.87   -5 Mostly Cloudy
20:00 -1.0 -5.2 73 12 13 24.1 98.79   -5 LegendNANA
21:00 -0.4 -3.8 78 13 9 24.1 98.81   -4 LegendNANA
22:00 0.1 -2.9 80 12 12 24.1 98.73     Mostly Cloudy
23:00 0.2 -3.5 76 13 8 24.1 98.64     LegendNANA

Notes on Data Quality.

Legend

  • E = Estimated
  • M = Missing
  • NA = Not Available
Date modified: